Weather History for Mora, MN

Change the Weather History Date:

Friday, October 31, 2014

  Actual Average Record
Temperature  
Mean Temperature 28 °F -  
Max Temperature 37 °F 50 °F 78 °F (1950)
Min Temperature 19 °F 28 °F 5 °F (1984)
Degree Days  
Heating Degree Days 37    
Moisture  
Dew Point 17 °F    
Average Humidity 62    
Maximum Humidity 93    
Minimum Humidity 36    
Precipitation  
Precipitation 0.00 in - - ()
Sea Level Pressure  
Sea Level Pressure 30.51 in    
Wind  
Wind Speed 6 mph (North)    
Max Wind Speed 10 mph    
Max Gust Speed 21 mph    
Visibility 10 miles    
Events      
Averages and records for this station are not official NWS values.
T = Trace of Precipitation, MM = Missing Value Source: NWS Daily Summary

Daily Weather History Graph

Daily Weather History Graph

Search for Another Location

Airport:

Trip Planner

Search our weather history database for the weather conditions in past years. The results will help you decide how hot, cold, wet, or windy it might be!

Date:

Astronomy

Oct. 31, 2014 Rise Set
Actual Time 7:51 AM CDT 6:00 PM CDT
Civil Twilight 7:20 AM CDT 6:31 PM CDT
Nautical Twilight 6:45 AM CDT 7:06 PM CDT
Astronomical Twilight 6:11 AM CDT 7:41 PM CDT
Moon 2:35 PM CDT (10/31) 12:19 AM CDT (10/31)
Length of Visible Light 11h 10m
Length of Day
10h 08m
First Quarter, 57% of the Moon is Illuminated
Oct 31
First Quarter
Nov 6
Full
Nov 14
Last Quarter
Nov 22
New
Nov 29
First Quarter

Hourly Weather History & Observations

Time (CDT) Temp. Windchill Dew Point Humidity Pressure Visibility Wind Dir Wind Speed Gust Speed Precip Events Conditions
12:15 AM 30.2 °F 21.9 °F 17.6 °F 60% 30.40 in 10.0 mi North 9.2 mph 16.1 mph N/A   Clear
12:35 AM 30.2 °F 21.3 °F 17.6 °F 60% 30.41 in 10.0 mi North 10.4 mph 20.7 mph N/A   Clear
12:55 AM 30.2 °F 23.4 °F 17.6 °F 60% 30.41 in 10.0 mi North 6.9 mph - N/A   Clear
1:15 AM 30.2 °F 21.3 °F 17.6 °F 60% 30.42 in 10.0 mi North 10.4 mph 17.3 mph N/A   Clear
1:35 AM 30.2 °F 22.6 °F 17.6 °F 60% 30.43 in 10.0 mi North 8.1 mph 20.7 mph N/A   Clear
1:55 AM 30.2 °F 21.9 °F 17.6 °F 60% 30.44 in 10.0 mi North 9.2 mph - N/A   Clear
2:15 AM 28.4 °F 19.1 °F 17.6 °F 64% 30.45 in 10.0 mi North 10.4 mph - N/A   Scattered Clouds
2:34 AM 30.2 °F 23.4 °F 17.6 °F 60% 30.46 in 10.0 mi North 6.9 mph - N/A   Mostly Cloudy
2:55 AM 30.2 °F 22.6 °F 17.6 °F 60% 30.47 in 10.0 mi North 8.1 mph 16.1 mph N/A   Mostly Cloudy
3:15 AM 30.2 °F 22.6 °F 17.6 °F 60% 30.47 in 10.0 mi North 8.1 mph 17.3 mph N/A   Scattered Clouds
3:35 AM 28.4 °F 22.2 °F 17.6 °F 64% 30.48 in 10.0 mi North 5.8 mph - N/A   Clear
3:55 AM 26.6 °F 21.2 °F 15.8 °F 64% 30.48 in 10.0 mi North 4.6 mph - N/A   Clear
4:15 AM 26.6 °F 20.0 °F 17.6 °F 69% 30.49 in 10.0 mi North 5.8 mph - N/A   Clear
4:35 AM 26.6 °F 22.6 °F 17.6 °F 69% 30.50 in 10.0 mi North 3.5 mph - N/A   Clear
4:55 AM 26.6 °F 19.1 °F 17.6 °F 69% 30.51 in 10.0 mi North 6.9 mph - N/A   Clear
5:15 AM 26.6 °F 20.0 °F 17.6 °F 69% 30.51 in 10.0 mi North 5.8 mph - N/A   Clear
5:35 AM 26.6 °F 22.6 °F 17.6 °F 69% 30.52 in 10.0 mi North 3.5 mph - N/A   Clear
5:55 AM 26.6 °F 22.6 °F 17.6 °F 69% 30.52 in 10.0 mi North 3.5 mph - N/A   Scattered Clouds
6:15 AM 26.6 °F 19.1 °F 17.6 °F 69% 30.52 in 10.0 mi North 6.9 mph - N/A   Scattered Clouds
6:35 AM 26.6 °F 20.0 °F 17.6 °F 69% 30.52 in 10.0 mi North 5.8 mph - N/A   Clear
6:55 AM 26.6 °F 21.2 °F 19.4 °F 74% 30.53 in 10.0 mi North 4.6 mph - N/A   Clear
7:15 AM 26.6 °F 21.2 °F 19.4 °F 74% 30.54 in 10.0 mi North 4.6 mph - N/A   Clear
7:35 AM 24.8 °F 19.1 °F 17.6 °F 74% 30.54 in 10.0 mi NNW 4.6 mph - N/A   Clear
7:55 AM 26.6 °F 21.2 °F 19.4 °F 74% 30.55 in 10.0 mi North 4.6 mph - N/A   Clear
8:14 AM 26.6 °F 20.0 °F 19.4 °F 74% 30.55 in 10.0 mi North 5.8 mph - N/A   Clear
8:35 AM 26.6 °F 21.2 °F 17.6 °F 69% 30.56 in 10.0 mi North 4.6 mph - N/A   Clear
8:55 AM 26.6 °F 21.2 °F 17.6 °F 69% 30.56 in 10.0 mi North 4.6 mph - N/A   Clear
9:15 AM 28.4 °F 23.3 °F 17.6 °F 64% 30.56 in 10.0 mi North 4.6 mph - N/A   Clear
9:35 AM 30.2 °F 26.7 °F 17.6 °F 60% 30.56 in 10.0 mi North 3.5 mph - N/A   Clear
9:55 AM 30.2 °F 22.6 °F 17.6 °F 60% 30.56 in 10.0 mi NE 8.1 mph - N/A   Clear
10:15 AM 32.0 °F 24.2 °F 19.4 °F 60% 30.56 in 10.0 mi NE 9.2 mph - N/A   Clear
10:35 AM 32.0 °F 25.6 °F 17.6 °F 55% 30.57 in 10.0 mi North 6.9 mph - N/A   Clear
10:55 AM 32.0 °F 24.8 °F 17.6 °F 55% 30.57 in 10.0 mi NNE 8.1 mph - N/A   Clear
11:15 AM 32.0 °F 26.4 °F 17.6 °F 55% 30.58 in 10.0 mi NNE 5.8 mph - N/A   Clear
11:35 AM 33.8 °F 27.7 °F 17.6 °F 52% 30.58 in 10.0 mi North 6.9 mph - N/A   Clear
11:55 AM 33.8 °F 27.7 °F 17.6 °F 52% 30.59 in 10.0 mi NE 6.9 mph - N/A   Clear
12:15 PM 33.8 °F 29.6 °F 17.6 °F 52% 30.58 in 10.0 mi NNE 4.6 mph - N/A   Clear
12:35 PM 33.8 °F 29.6 °F 17.6 °F 52% 30.57 in 10.0 mi ENE 4.6 mph - N/A   Clear
12:55 PM 35.6 °F 31.7 °F 19.4 °F 52% 30.56 in 10.0 mi North 4.6 mph - N/A   Clear
1:15 PM 35.6 °F - 17.6 °F 48% 30.55 in 10.0 mi Calm Calm - N/A   Clear
1:35 PM 35.6 °F 29.9 °F 17.6 °F 48% 30.54 in 10.0 mi NW 6.9 mph - N/A   Clear
1:55 PM 35.6 °F 32.8 °F 15.8 °F 44% 30.54 in 10.0 mi East 3.5 mph - N/A   Clear
2:15 PM 35.6 °F - 15.8 °F 44% 30.53 in 10.0 mi Calm Calm - N/A   Clear
2:35 PM 37.4 °F - 17.6 °F 45% 30.53 in 10.0 mi Calm Calm - N/A   Clear
2:55 PM 35.6 °F - 14.0 °F 41% 30.52 in 10.0 mi Calm Calm - N/A   Clear
3:15 PM 37.4 °F 32.1 °F 15.8 °F 41% 30.51 in 10.0 mi ENE 6.9 mph - N/A   Clear
3:35 PM 37.4 °F 34.9 °F 14.0 °F 38% 30.51 in 10.0 mi NE 3.5 mph - N/A   Clear
3:55 PM 37.4 °F 33.8 °F 12.2 °F 36% 30.51 in 10.0 mi NE 4.6 mph - N/A   Clear
4:15 PM 37.4 °F 34.9 °F 12.2 °F 36% 30.51 in 10.0 mi ESE 3.5 mph - N/A   Clear
4:35 PM 35.6 °F - 12.2 °F 38% 30.51 in 10.0 mi Calm Calm - N/A   Clear
4:55 PM 35.6 °F - 14.0 °F 41% 30.50 in 10.0 mi Calm Calm - N/A   Clear
5:15 PM 35.6 °F - 14.0 °F 41% 30.50 in 10.0 mi Calm Calm - N/A   Clear
5:35 PM 35.6 °F - 14.0 °F 41% 30.50 in 10.0 mi Calm Calm - N/A   Clear
5:55 PM 33.8 °F - 14.0 °F 44% 30.50 in 10.0 mi Calm Calm - N/A   Clear
6:15 PM 32.0 °F - 15.8 °F 51% 30.51 in 10.0 mi Calm Calm - N/A   Clear
6:35 PM 30.2 °F - 17.6 °F 60% 30.51 in 10.0 mi Calm Calm - N/A   Clear
6:55 PM 30.2 °F - 17.6 °F 60% 30.51 in 10.0 mi Calm Calm - N/A   Clear
7:15 PM 28.4 °F - 17.6 °F 64% 30.51 in 10.0 mi Calm Calm - N/A   Clear
7:34 PM 26.6 °F - 19.4 °F 74% 30.51 in 10.0 mi Calm Calm - N/A   Clear
7:55 PM 26.6 °F - 19.4 °F 74% 30.50 in 10.0 mi Calm Calm - N/A   Clear
8:15 PM 26.6 °F - 19.4 °F 74% 30.49 in 10.0 mi Calm Calm - N/A   Clear
8:35 PM 24.8 °F - 19.4 °F 80% 30.49 in 10.0 mi Calm Calm - N/A   Clear
8:55 PM 24.8 °F - 19.4 °F 80% 30.49 in 10.0 mi Calm Calm - N/A   Clear
9:15 PM 24.8 °F - 19.4 °F 80% 30.50 in 10.0 mi Calm Calm - N/A   Clear
9:35 PM 24.8 °F - 19.4 °F 80% 30.49 in 10.0 mi Calm Calm - N/A   Clear
9:55 PM 21.2 °F - 17.6 °F 86% 30.49 in 10.0 mi Calm Calm - N/A   Clear
10:15 PM 21.2 °F - 17.6 °F 86% 30.49 in 10.0 mi Calm Calm - N/A   Clear
10:35 PM 21.2 °F - 17.6 °F 86% 30.49 in 10.0 mi Calm Calm - N/A   Clear
10:55 PM 21.2 °F - 17.6 °F 86% 30.49 in 10.0 mi Calm Calm - N/A   Clear
11:15 PM 21.2 °F - 17.6 °F 86% 30.49 in 10.0 mi Calm Calm - N/A   Clear
11:35 PM 19.4 °F - 17.6 °F 93% 30.49 in 10.0 mi Calm Calm - N/A   Clear
11:55 PM 19.4 °F - 17.6 °F 93% 30.48 in 10.0 mi Calm Calm - N/A   Clear